User: anonymous   Login
Location: Sungai Kamana Besar
(2.6333°N, 113.4333°E)
Time: 17:05:10
(UTC+00:00)
Language:

CZ-4C R/B - Orbit

View from above orbital plane
View from above orbital plane
View from above satellite
View from above satellite

Ground track
Ground track

The orbit data is extracted from the following two-line orbital elements,

1 39211U 13037D   22229.07058319  .00002205  00000-0  12635-3 0  9999
2 39211  98.0701  42.1965 0119574  60.3526 300.9546 15.07890049498213
Epoch (UTC): 17 August 2022 01:41:38
Eccentricity: 0.0119574
inclination: 98.0701°
perigee height: 460 km
apogee height: 625 km
right ascension of ascending node: 42.1965°
argument of perigee: 60.3526°
revolutions per day: 15.07890049
mean anomaly at epoch: 300.9546°
orbit number at epoch: 49821

The dashed part of the orbit path shows where the satellite is in the earth's shadow,  

DLR